Rocky Mount, NC

7:45 PM EDT on May 22, 2017 (GMT -0400)
Rocky Mount-Wilson Regional

Weather History for KRWI - October, 2010

Change the Weather History Date:

Saturday, October 30, 2010

  Actual Average Record
Temperature  
Mean Temperature 48 °F -  
Max Temperature 64 °F 68 °F 84 °F (1996)
Min Temperature 33 °F 44 °F 23 °F (1965)
Degree Days  
Heating Degree Days 16    
Moisture  
Dew Point 36 °F    
Average Humidity 69    
Maximum Humidity 100    
Minimum Humidity 35    
Precipitation  
Precipitation 0.00 in - - ()
Sea Level Pressure  
Sea Level Pressure 30.17 in    
Wind  
Wind Speed 3 mph (South)    
Max Wind Speed 9 mph    
Max Gust Speed 18 mph    
Visibility 9 miles    
Events      
Averages and records for this station are not official NWS values.
T = Trace of Precipitation, MM = Missing Value Source: NWS Daily Summary

Daily Weather History Graph

Daily Weather History Graph

Search for Another Location

Airport or City:

Trip Planner

Search our weather history database for the weather conditions in past years. The results will help you decide how hot, cold, wet, or windy it might be!

Date:

Astronomy

Oct. 30, 2010 Rise Set
Actual Time 7:31 AM EDT 6:18 PM EDT
Civil Twilight 7:05 AM EDT 6:44 PM EDT
Nautical Twilight 6:35 AM EDT 7:14 PM EDT
Astronomical Twilight 6:05 AM EDT 7:44 PM EDT
Moon 12:01 AM EDT (10/30) 2:05 PM EDT (10/30)
Length of Visible Light 11h 38m
Length of Day
10h 46m
Waning Gibbous, 48% of the Moon is Illuminated
Oct 30
Waning Gibbous
Nov 6
New
Nov 13
First Quarter
Nov 21
Full
Nov 28
Last Quarter

Hourly Weather History & Observations

Time (EDT) Temp. Windchill Dew Point Humidity Pressure Visibility Wind Dir Wind Speed Gust Speed Precip Events Conditions
12:53 AM 43.0 °F 38.2 °F 37.0 °F 80% 30.22 in 10.0 mi NNE 8.1 mph - N/A   Clear
1:53 AM 43.0 °F - 37.0 °F 80% 30.23 in 10.0 mi Calm Calm - N/A   Unknown
2:53 AM 39.9 °F - 36.0 °F 86% 30.23 in 10.0 mi Calm Calm - N/A   Unknown
3:53 AM 37.0 °F - 35.1 °F 93% 30.23 in 10.0 mi Calm Calm - N/A   Unknown
4:53 AM 37.0 °F - 34.0 °F 89% 30.25 in 10.0 mi Calm Calm - N/A   Unknown
5:53 AM 36.0 °F - 35.1 °F 97% 30.27 in 10.0 mi Calm Calm - N/A   Unknown
6:48 AM 35.6 °F - 33.8 °F 93% 30.26 in 1.8 mi Calm Calm - N/A   Mist
6:53 AM 35.1 °F - 34.0 °F 96% 30.27 in 2.0 mi Calm Calm - N/A   Mist
7:02 AM 33.8 °F - 33.8 °F 100% 30.27 in 9.0 mi Calm Calm - N/A   Unknown
7:53 AM 34.0 °F - 33.1 °F 96% 30.27 in 7.0 mi Calm Calm - N/A   Unknown
8:53 AM 43.0 °F - 39.9 °F 89% 30.28 in 10.0 mi Calm Calm - N/A   Unknown
9:53 AM 48.9 °F - 36.0 °F 61% 30.28 in 10.0 mi ESE 4.6 mph - N/A   Unknown
10:53 AM 53.1 °F - 33.1 °F 47% 30.27 in 10.0 mi Variable 3.5 mph - N/A   Clear
11:53 AM 55.9 °F - 32.0 °F 40% 30.25 in 10.0 mi Variable 3.5 mph - N/A   Clear
12:53 PM 57.9 °F - 34.0 °F 41% 30.21 in 10.0 mi SW 4.6 mph - N/A   Clear
1:53 PM 60.1 °F - 34.0 °F 38% 30.18 in 10.0 mi Variable 4.6 mph 16.1 mph N/A   Clear
2:53 PM 62.1 °F - 35.1 °F 37% 30.12 in 10.0 mi SSW 8.1 mph - N/A   Clear
3:53 PM 64.0 °F - 36.0 °F 35% 30.10 in 10.0 mi SSW 9.2 mph 18.4 mph N/A   Clear
4:53 PM 61.0 °F - 37.0 °F 41% 30.09 in 10.0 mi SSW 9.2 mph - N/A   Clear
5:53 PM 59.0 °F - 39.0 °F 48% 30.07 in 10.0 mi SSW 5.8 mph - N/A   Clear
6:53 PM 52.0 °F - 41.0 °F 66% 30.06 in 10.0 mi Calm Calm - N/A   Clear
7:53 PM 51.1 °F - 39.9 °F 66% 30.05 in 10.0 mi South 5.8 mph - N/A   Clear
8:53 PM 50.0 °F - 39.9 °F 68% 30.04 in 10.0 mi South 4.6 mph - N/A   Clear
9:53 PM 53.1 °F - 39.9 °F 61% 30.02 in 10.0 mi SSW 6.9 mph - N/A   Clear
10:53 PM 50.0 °F - 39.9 °F 68% 30.02 in 10.0 mi SSW 3.5 mph - N/A   Clear
11:53 PM 46.9 °F - 39.9 °F 77% 30.01 in 10.0 mi South 4.6 mph - N/A   Clear